Tracking 31027 objects as of 19-Jul-2025
HD Live streaming from Space Station
objects crossing your sky now

OPS 1570

Track OPS 1570 now!
OPS 1570 is classified as:


NORAD ID: 5851
Int'l Code: 1972-010A
Perigee: 35,902.4 km
Apogee: 35,966.5 km
Inclination: 0.5 °
Period: 1,443.3 minutes
Semi major axis: 42305 km
RCS: Unknown
Launch date: March 1, 1972
Source: United States (US)
Launch site: AIR FORCE EASTERN TEST RANGE (AFETR)
Your satellite tracking list
CZ-2C R/B
Track 1 satellite(s)




NASA's NSSDC Master Catalog

Two Line Element Set (TLE):
1 05851U 72010A   25199.56601824  .00000147  00000-0  00000-0 0  9999
2 05851   0.4790 258.7427 0007576   9.1604 278.9074  0.99771914 22593
Source of the keplerian elements: McCants